SCP
0 0 0 0 0 0 0 0 0 0 0 0 0 0 0 0 0 0 0 -0 -0 0 -0 -0 -0 -0 -0 -0 -0 -0 -0 -0 0 0 0 0 0 0 0 0 0 0 0 0 0 0 0 0 0
0 0 0 0 0 0 0 0 0 0 0 0 0 0 0 0 0 0 0 -0 0 0 0 0 -0 -0 -0 -0 -0 -0 -0 -0 -0 0 0 0 0 0 0 0 0 0 0 0 0 0 0 0 0
0 0 0 0 0 0 0 0 0 0 0 0 0 0 0 0 0 0 0 0 0 0 0 0 -0 -0 -0 -0 -0 -0 -0 0 0 0 0 0 0 0 0 0 0 0 0 0 0 0 0 0 0
0 0 0 0 0 0 0 0 0 0 0 0 0 0 0 0 0 0 0 0 0 0 0 0 0 0 0 0 0 0 0 0 0 0 0 0 0 0 0 0 0 0 0 0 0 0 0 0 0
0 0 0 0 0 0 0 0 0 0 0 0 0 0 0 0 0 0 0 0 0 0 0 0 0 0 0 0 0 0 0 0 0 0 0 0 0 0 0 0 0 0 0 0 0 0 0 0 0
0 0 0 0 0 0 0 0 0 0 0 0 0 0 0 0 0 0 0 0 0 0 0 0 0 0 0 0 0 0 0 0 0 0 0 0 0 0 0 0 0 0 0 0 0 0 0 0 0
0 0 0 0 0 0 0 0 0 0 0 0 0 0 0 0 0 0 0 0 0 0 0 0 0 0 0 0 0 0 0 0 0 0 0 0 0 0 0 0 0 0 0 0 0 0 0 0 0
0 0 0 0 0 0 0 0 0 0 0 0 0 0 0 0 0 0 0 0 0 0 0 0 0 0 0 0 0 0 0 0 0 0 0 0 0 0 0 0 0 0 0 0 0 0 0 0 0
0 0 0 0 0 0 0 0 0 0 0 0 0 0 0 0 0 0 0 0 0 0 0 0 0 0 0 0 0 0 0 0 0 0 0 0 0 0 0 0 0 0 0 0 0 0 0 0 0
0 0 0 0 0 0 0 0 0 0 0 0 0 0 0 0 0 0 0 0 0 0 0 0 0 0 0 0 0 0 0 0 0 0 0 0 0 0 0 0 0 0 0 0 0 0 0 0 0
0 0 0 0 0 0 0 0 0 0 0 0 0 0 0 0 0 0 0 0 0 0 0 0 0 0 0 0 0 0 0 0 0 0 0 0 0 0 0 0 0 0 0 0 0 0 0 0 0
0 0 0 0 0 0 0 0 0 0 0 0 0 0 0 0 0 0 0 0 0 0 0 0 0 0 0 0 0 0 0 0 0 0 0 0 0 0 0 0 0 0 0 0 0 0 0 0 0
0 0 0 0 0 0 0 0 0 0 0 0 0 0 0 0 0 0 0 0 0 0 0 0 0 0 0 0 0 0 0 0 0 0 0 0 0 0 0 0 0 0 0 0 0 0 0 0 0
0 0 0 0 0 0 0 0 0 0 0 0 0 0 0 0 0 0 0 0 0 0 0 0 0 0 0 0 0 0 0 0 0 0 0 0 0 0 0 0 0 0 0 0 0 0 0 0 0
0 0 0 0 0 0 0 0 0 0 0 0 0 0 0 0 0 0 0 0 0 0 0 0 0 0 0 0 0 0 0 0 0 0 0 0 0 0 0 0 0 0 0 0 0 0 0 0 0
0 0 0 0 0 0 0 0 0 0 0 0 0 0 0 0 0 0 0 0 0 0 0 0 0 0 0 0 0 0 0 0 0 0 0 0 0 0 0 0 0 0 0 0 0 0 0 0 0
0 0 0 0 0 0 0 0 0 0 0 0 0 0 0 0 0 0 0 0 0 0 0 0 0 0 0 0 0 0 0 0 0 0 0 0 0 0 0 0 0 0 0 0 0 0 0 0 0
0 0 0 0 0 0 0 0 0 0 0 0 0 0 0 0 0 0 0 0 0 0 0 0 0 0 0 0 0 0 0 0 0 0 0 0 0 0 0 0 0 0 0 0 0 0 0 -0 0
0 0 0 0 0 0 0 0 0 0 0 0 0 0 0 0 0 0 0 0 0 0 0 0 0 0 0 0 0 0 0 0 0 0 0 0 0 0 0 0 0 0 -0 -0 -0 -0 0 0 0
0 0 0 0 0 0 0 0 0 0 0 0 0 0 0 0 0 0 0 0 0 0 0 0 0 0 0 0 0 -0 -0 -0 -0 0 0 0 0 0 0 0 0 0 -0 -0 -0 -0 -0 -0 -0
0 0 0 0 0 0 0 0 0 0 0 0 0 0 0 0 0 0 0 0 0 0 0 0 0 0 0 0 0 -0 -0 -0 -0 0 0 0 0 0 0 0 0 -0 -0 -0 -0 -0 -0 -0 -0
0 0 0 0 0 0 0 0 0 0 0 0 0 0 0 0 0 0 0 0 0 0 0 0 0 0 0 0 0 0 -0 -0 -0 -0 -0 -0 0 0 0 0 0 0 0 0 0 0 -0 -0 -0
0 0 0 0 0 0 0 0 0 0 0 0 0 0 0 0 0 0 0 0 0 0 0 0 0 0 0 0 0 0 0 -0 -0 -0 0 0 0 0 0 0 0 0 0 0 0 0 0 -0 -0
0 0 0 0 0 0 0 0 0 -0 0 0 0 0 0 0 0 0 0 0 0 0 0 0 0 0 0 0 0 0 -0 -0 -0 0 0 0 0 0 0 0 0 0 0 0 0 0 0 0 0
0 0 0 0 0 0 0 0 0 0 0 0 0 0 0 0 0 0 0 0 0 0 0 0 0 0 0 0 0 -0 -0 -0 -0 0 0 0 0 0 0 0 0 0 0 0 0 0 0 0 0
0 0 0 0 0 0 0 0 0 0 0 0 0 0 0 0 0 0 0 0 0 0 0 0 0 0 0 0 -0 -0 -0 -0 -0 -0 -0 0 0 0 0 0 0 0 0 0 0 0 0 0 0
0 0 0 0 0 0 0 0 0 0 0 0 0 0 0 0 0 0 0 0 0 0 0 0 0 0 0 -0 -0 -0 -0 -0 -0 -0 0 0 0 0 0 0 0 0 0 0 0 0 0 0 0
0 0 0 0 0 0 0 0 0 0 0 0 0 0 0 0 0 0 0 0 0 0 0 0 0 -0 0 0 0 0 -0 -0 0 0 0 0 0 0 0 0 0 0 0 0 0 0 0 0 0
0 0 0 0 0 0 0 0 0 0 0 0 0 0 0 0 0 0 0 0 0 0 0 0 0 0 0 0 0 0 0 0 0 0 0 0 0 0 0 0 0 0 0 0 0 0 0 0 0
0 0 0 0 0 0 0 0 0 0 0 0 0 0 0 0 0 0 0 0 0 0 0 0 0 0 0 0 0 0 0 0 0 0 0 0 0 0 0 0 0 0 0 0 0 0 0 0 0
Wind_Speed_500mb
10 13 8 4 5 7 1 3 1 7 4 11 11 8 20 19 9 6 15 11 9 14 15 17 9 5 7 8 7 5 4 2 2 3 6 8 9 7 9 12 13 15 15 14 14 15 17 14 13
11 9 1 7 7 4 4 4 4 3 22 29 27 16 16 10 14 10 13 7 10 12 12 10 10 10 11 14 10 8 8 10 9 6 6 4 4 10 12 12 13 13 17 18 17 16 16 17 12
15 12 4 8 5 3 4 1 12 18 15 3 12 22 10 7 9 6 3 8 12 13 11 10 9 9 12 13 16 16 11 12 16 14 12 12 11 11 10 11 15 15 15 16 16 17 16 13 16
8 4 6 8 6 2 1 10 17 15 11 13 23 20 15 11 7 2 5 9 11 14 16 14 13 14 15 15 15 16 17 19 19 19 20 20 20 21 20 22 20 15 16 19 17 17 16 15 15
6 2 5 7 5 5 4 8 21 6 7 11 5 12 10 8 5 4 7 9 11 14 17 19 20 21 22 22 21 20 20 21 23 25 27 27 26 27 26 26 28 28 26 20 15 20 21 20 17
3 5 3 7 9 8 6 3 8 8 9 8 14 14 10 8 3 0 6 9 13 16 18 20 23 25 28 29 29 29 28 27 28 30 30 33 31 30 31 31 33 34 33 31 28 24 22 25 25
7 6 7 10 13 9 7 6 8 8 8 9 9 10 17 6 4 3 7 10 12 14 17 19 22 24 26 29 31 31 32 32 31 30 33 34 37 37 36 34 37 43 38 37 33 33 34 30 27
5 7 7 7 14 8 13 15 11 6 7 10 6 5 11 11 7 5 6 10 12 16 19 21 22 23 25 27 30 31 32 32 32 32 31 33 34 35 39 39 37 38 39 41 38 36 36 37 38
6 6 5 5 9 6 14 7 9 8 17 6 5 9 19 19 10 5 0 5 9 14 17 19 21 22 22 23 24 26 28 29 29 30 31 31 34 36 38 39 40 39 39 37 37 39 39 39 41
7 5 10 4 8 5 4 11 18 8 11 10 20 20 18 18 10 5 0 6 9 11 14 19 20 20 21 20 19 18 19 21 23 25 26 26 29 30 33 37 40 41 43 40 39 37 37 39 45
7 4 7 6 14 13 13 9 11 25 4 15 24 25 17 15 9 3 5 10 14 16 16 16 18 20 21 21 22 19 17 15 15 16 19 21 22 24 26 29 33 38 43 45 46 46 46 45 48
10 12 8 7 10 12 9 17 11 3 5 16 30 22 16 10 7 4 4 7 10 13 16 18 19 20 22 24 24 25 24 25 22 21 18 16 16 18 20 21 24 25 28 35 44 46 44 42 45
8 6 14 15 16 18 19 9 14 15 24 26 27 23 15 8 7 8 8 7 6 7 12 16 19 21 24 25 27 28 30 31 33 30 30 28 26 24 24 22 22 24 25 27 29 33 40 44 41
9 19 14 12 12 10 11 8 3 19 30 28 22 19 14 8 7 8 11 11 12 14 14 16 17 21 23 25 28 30 31 33 33 34 37 37 36 35 34 31 28 26 26 27 29 33 35 37 43
11 9 6 14 7 5 10 1 9 34 36 30 24 20 15 11 10 11 14 15 18 18 21 19 21 23 23 26 28 29 32 31 32 35 35 37 37 37 37 37 37 36 36 33 30 28 29 32 37
8 8 3 6 7 2 3 9 5 43 44 34 29 24 18 14 15 16 17 17 19 20 20 23 25 24 26 28 30 31 32 33 35 36 38 39 39 39 39 38 39 38 38 38 38 38 36 34 35
12 4 4 4 8 5 3 8 6 45 41 37 35 30 24 19 18 19 18 17 17 18 20 20 21 21 24 25 28 30 30 31 34 34 37 39 40 41 42 43 44 44 44 44 44 44 45 42 39
9 6 4 7 7 3 4 16 9 44 43 44 43 36 31 26 22 21 20 19 17 17 17 18 18 19 20 21 24 26 27 31 32 35 36 36 37 38 39 41 42 43 45 47 48 50 52 55 56
11 6 3 3 2 4 11 14 16 43 50 49 48 46 42 35 28 26 23 20 17 15 15 14 15 17 18 18 19 23 29 31 32 35 35 36 38 39 41 43 45 48 50 53 52 52 53 52 54
4 4 5 3 2 1 9 24 25 38 52 66 66 61 54 46 41 35 29 24 20 17 15 13 13 15 16 19 24 27 28 30 31 33 33 36 38 39 41 42 45 47 49 52 55 58 60 64 68
4 4 3 5 6 1 12 15 10 10 34 53 71 69 63 59 50 43 37 29 24 20 17 14 12 13 15 19 23 25 25 25 27 31 34 37 37 37 39 41 43 46 48 52 55 57 60 62 61
3 1 3 3 5 7 6 12 13 5 11 25 59 79 72 64 55 46 42 37 29 24 20 15 11 11 12 14 17 21 26 30 33 34 34 33 34 36 38 40 42 44 46 47 50 50 51 51 55
5 5 7 4 5 5 2 1 13 5 13 31 51 68 80 70 64 55 49 38 32 27 23 18 13 10 9 11 15 21 25 28 28 29 30 32 34 36 38 39 41 43 45 47 47 47 47 46 45
11 7 7 7 5 4 5 4 12 9 12 9 33 66 85 79 69 57 44 42 38 33 28 22 17 12 7 7 11 17 22 24 25 26 28 30 33 35 38 40 42 44 45 47 48 47 45 44 42
5 8 5 9 7 10 3 1 22 17 14 12 13 57 84 82 73 65 57 53 44 38 31 26 21 16 9 3 8 14 19 22 24 25 27 28 30 32 36 40 42 43 44 45 46 46 45 44 43
2 7 9 13 5 7 4 12 14 13 6 11 19 21 62 83 80 72 62 52 43 37 33 28 23 19 12 3 5 12 19 23 24 24 26 28 30 33 36 39 40 41 42 43 43 44 44 43 41
5 4 4 12 4 6 7 16 19 4 9 22 17 18 41 77 85 76 64 53 42 38 32 26 24 20 14 4 5 12 19 24 26 25 25 27 30 32 36 39 40 41 43 44 45 45 44 43 43
8 7 8 5 1 8 9 12 12 11 15 17 12 21 27 53 81 79 68 56 43 34 29 27 24 21 17 10 9 14 20 26 29 29 27 28 30 33 36 38 40 41 43 44 45 46 46 45 45
3 1 6 5 7 8 3 12 13 9 6 14 26 22 25 39 72 83 71 57 42 33 34 28 26 24 24 18 16 18 22 28 32 32 31 31 32 35 38 40 40 42 44 43 45 46 45 46 46
5 10 10 9 10 4 1 17 2 11 18 17 27 16 17 28 52 78 72 60 50 41 34 31 28 25 22 25 22 22 25 31 35 35 34 34 35 39 41 41 43 43 44 44 44 45 45 46 45
Wind_Direction_500mb
328 330 340 36 51 64 98 263 290 115 98 57 120 108 108 53 58 127 151 18 13 354 352 360 28 2 329 330 295 246 223 184 292 23 9 318 308 294 286 286 284 282 280 279 288 307 288 291 296
317 331 292 83 75 77 256 276 218 66 130 108 92 82 50 74 70 97 160 314 6 10 4 344 331 338 320 302 281 305 294 249 235 252 290 291 299 322 309 295 283 281 283 280 276 291 313 283 268
312 320 234 95 101 165 214 327 128 109 133 126 103 76 77 53 74 97 14 348 346 344 350 352 350 326 329 326 320 274 279 303 295 262 267 270 274 275 268 288 306 300 284 281 277 276 291 293 284
298 272 67 98 126 217 314 116 135 125 86 80 108 70 86 72 140 67 357 340 334 329 330 332 328 322 320 324 317 308 275 269 281 291 286 275 266 258 270 279 276 270 286 290 282 271 274 283 278
246 327 78 99 118 105 64 132 177 86 78 77 102 129 90 83 91 5 337 335 329 324 322 319 314 311 308 306 301 297 292 279 265 274 281 282 280 275 268 270 274 277 275 272 271 288 279 265 266
169 98 85 183 132 130 93 138 155 83 92 97 101 105 131 108 84 305 1 344 338 332 325 320 315 308 303 300 299 296 291 286 279 271 266 271 275 279 278 278 276 276 274 274 271 261 268 280 272
136 104 206 180 144 141 136 75 78 107 82 55 130 101 148 129 115 66 9 360 347 339 331 322 317 311 303 297 294 291 289 285 281 278 271 270 267 273 276 279 282 276 276 273 270 266 264 261 265
159 111 147 186 172 173 144 126 104 83 109 125 142 147 165 158 116 85 13 349 345 344 344 341 333 324 313 304 296 290 285 283 283 279 275 269 270 272 274 275 280 283 282 272 267 270 272 269 265
134 73 184 162 163 135 142 116 139 134 123 93 98 176 145 132 130 115 354 327 335 337 339 344 340 334 330 318 308 298 290 286 283 282 280 276 269 267 271 277 278 282 285 285 283 273 267 271 270
82 164 192 106 120 103 117 134 145 148 116 89 120 132 125 122 131 152 37 351 354 351 350 350 353 355 354 352 342 324 311 299 291 287 287 287 283 280 270 270 271 278 281 282 282 279 277 281 276
49 130 141 94 102 150 149 114 127 139 168 186 176 144 136 131 135 95 10 2 9 13 12 9 6 7 8 12 16 12 5 354 340 322 305 300 297 293 288 284 282 279 269 276 277 279 279 280 276
85 53 77 99 128 145 134 139 92 92 146 162 151 139 142 136 125 92 39 20 16 14 20 26 28 26 27 27 27 30 32 32 27 20 8 355 333 315 305 302 299 297 288 279 274 272 278 281 283
76 112 68 95 105 107 136 103 139 122 139 149 151 148 143 133 95 74 68 61 55 38 38 36 40 40 42 41 42 42 42 40 40 37 34 30 24 14 5 352 335 320 313 302 297 288 279 275 278
95 103 100 71 78 92 114 140 135 167 158 156 159 152 153 140 110 95 94 96 98 81 74 60 55 49 44 44 44 45 46 43 41 40 39 36 34 31 27 22 15 6 357 343 325 309 300 294 286
116 78 93 33 27 92 117 175 235 177 172 168 170 168 162 148 129 121 115 110 102 94 84 82 75 65 57 53 49 48 46 43 42 40 38 35 32 31 28 27 25 23 18 11 0 348 334 314 299
59 57 98 9 2 26 118 262 172 177 178 179 180 178 176 164 150 142 130 118 108 97 93 83 77 72 66 62 57 54 51 48 47 44 41 37 33 31 28 27 24 21 15 13 7 2 358 352 342
19 193 203 316 38 330 167 276 165 182 189 188 190 190 188 185 174 158 146 135 123 111 95 86 79 74 67 61 58 56 54 53 51 49 45 42 37 34 30 29 26 21 17 12 10 5 359 356 355
192 189 229 247 340 26 265 260 187 192 201 206 202 198 199 199 191 178 164 153 140 127 114 101 90 80 72 63 57 52 47 48 46 46 45 42 39 36 33 31 27 24 22 20 18 13 9 2 357
120 135 221 245 339 290 249 265 236 207 215 217 212 206 208 207 199 192 182 170 156 140 124 110 98 89 81 74 65 54 43 40 37 38 35 33 32 29 28 26 25 23 22 23 23 21 17 10 6
98 119 247 297 315 244 333 273 251 209 222 214 211 211 210 206 204 199 193 184 172 161 148 131 109 88 74 61 52 46 39 35 32 32 29 28 25 22 21 20 19 18 17 17 16 17 18 18 14
83 173 198 254 331 158 326 278 266 241 222 215 220 221 214 209 206 202 199 192 185 177 167 149 125 99 74 58 49 42 39 37 33 29 25 24 20 18 17 16 16 15 14 14 14 14 12 15 17
171 47 93 70 32 266 10 288 297 264 252 217 214 216 216 209 210 208 202 199 193 187 179 167 144 114 85 65 48 37 31 26 25 23 20 16 13 13 14 14 14 14 14 13 13 12 11 9 11
156 155 116 94 101 355 335 282 266 10 259 232 215 213 215 212 209 205 205 201 198 196 190 181 166 143 105 64 40 30 26 24 21 18 15 11 10 10 10 10 11 11 11 12 11 10 11 10 9
146 90 60 61 77 359 315 149 273 221 226 270 210 212 216 211 208 207 205 202 202 200 196 190 183 169 141 73 38 27 20 16 13 9 8 8 6 5 6 6 6 6 5 6 7 7 6 5 6
39 59 352 352 10 229 306 53 254 272 239 231 232 212 215 212 207 204 203 202 202 201 197 196 189 181 168 100 32 21 13 6 1 359 360 1 1 0 360 360 359 359 359 359 360 360 360 0 360
139 145 159 210 210 273 4 240 251 219 317 285 261 249 220 210 207 205 205 204 202 200 200 200 195 188 182 160 21 9 2 357 351 348 348 351 353 354 354 354 352 352 352 353 354 354 354 354 351
213 190 208 96 57 38 231 285 297 267 287 270 274 236 217 213 207 205 204 203 201 201 202 203 202 198 195 209 329 345 345 342 336 334 334 337 342 345 346 346 346 346 347 347 348 349 348 346 346
141 173 80 7 234 277 283 282 241 304 340 345 304 256 234 217 210 207 204 202 201 201 201 207 210 212 216 239 292 319 329 330 323 317 318 323 328 334 337 338 340 340 341 341 342 342 342 342 341
87 166 55 129 146 197 272 262 215 222 295 302 310 286 246 223 211 208 205 203 201 201 208 214 219 222 226 240 271 302 317 325 321 311 303 309 316 324 328 331 334 334 335 336 336 336 336 336 336
143 189 156 135 238 236 137 271 293 249 268 291 318 311 274 241 219 208 205 203 204 207 213 221 228 236 235 238 261 288 308 318 321 311 299 298 307 316 322 325 328 328 329 330 331 331 331 331 331
Wind_Speed_850mb
10 13 8 4 5 7 1 3 1 7 4 11 11 8 20 19 9 6 15 11 9 14 15 17 9 5 7 8 7 5 4 2 2 3 6 8 9 7 9 12 13 15 15 14 14 15 17 14 13
11 9 1 7 7 4 4 4 4 3 22 29 27 16 16 10 14 10 13 7 10 12 12 10 10 10 11 14 10 8 8 10 9 6 6 4 4 10 12 12 13 13 17 18 17 16 16 17 12
15 12 4 8 5 3 4 1 12 18 15 3 12 22 10 7 9 6 3 8 12 13 11 10 9 9 12 13 16 16 11 12 16 14 12 12 11 11 10 11 15 15 15 16 16 17 16 13 16
8 4 6 8 6 2 1 10 17 15 11 13 23 20 15 11 7 2 5 9 11 14 16 14 13 14 15 15 15 16 17 19 19 19 20 20 20 21 20 22 20 15 16 19 17 17 16 15 15
6 2 5 7 5 5 4 8 21 6 7 11 5 12 10 8 5 4 7 9 11 14 17 19 20 21 22 22 21 20 20 21 23 25 27 27 26 27 26 26 28 28 26 20 15 20 21 20 17
3 5 3 7 9 8 6 3 8 8 9 8 14 14 10 8 3 0 6 9 13 16 18 20 23 25 28 29 29 29 28 27 28 30 30 33 31 30 31 31 33 34 33 31 28 24 22 25 25
7 6 7 10 13 9 7 6 8 8 8 9 9 10 17 6 4 3 7 10 12 14 17 19 22 24 26 29 31 31 32 32 31 30 33 34 37 37 36 34 37 43 38 37 33 33 34 30 27
5 7 7 7 14 8 13 15 11 6 7 10 6 5 11 11 7 5 6 10 12 16 19 21 22 23 25 27 30 31 32 32 32 32 31 33 34 35 39 39 37 38 39 41 38 36 36 37 38
6 6 5 5 9 6 14 7 9 8 17 6 5 9 19 19 10 5 0 5 9 14 17 19 21 22 22 23 24 26 28 29 29 30 31 31 34 36 38 39 40 39 39 37 37 39 39 39 41
7 5 10 4 8 5 4 11 18 8 11 10 20 20 18 18 10 5 0 6 9 11 14 19 20 20 21 20 19 18 19 21 23 25 26 26 29 30 33 37 40 41 43 40 39 37 37 39 45
7 4 7 6 14 13 13 9 11 25 4 15 24 25 17 15 9 3 5 10 14 16 16 16 18 20 21 21 22 19 17 15 15 16 19 21 22 24 26 29 33 38 43 45 46 46 46 45 48
10 12 8 7 10 12 9 17 11 3 5 16 30 22 16 10 7 4 4 7 10 13 16 18 19 20 22 24 24 25 24 25 22 21 18 16 16 18 20 21 24 25 28 35 44 46 44 42 45
8 6 14 15 16 18 19 9 14 15 24 26 27 23 15 8 7 8 8 7 6 7 12 16 19 21 24 25 27 28 30 31 33 30 30 28 26 24 24 22 22 24 25 27 29 33 40 44 41
9 19 14 12 12 10 11 8 3 19 30 28 22 19 14 8 7 8 11 11 12 14 14 16 17 21 23 25 28 30 31 33 33 34 37 37 36 35 34 31 28 26 26 27 29 33 35 37 43
11 9 6 14 7 5 10 1 9 34 36 30 24 20 15 11 10 11 14 15 18 18 21 19 21 23 23 26 28 29 32 31 32 35 35 37 37 37 37 37 37 36 36 33 30 28 29 32 37
8 8 3 6 7 2 3 9 5 43 44 34 29 24 18 14 15 16 17 17 19 20 20 23 25 24 26 28 30 31 32 33 35 36 38 39 39 39 39 38 39 38 38 38 38 38 36 34 35
12 4 4 4 8 5 3 8 6 45 41 37 35 30 24 19 18 19 18 17 17 18 20 20 21 21 24 25 28 30 30 31 34 34 37 39 40 41 42 43 44 44 44 44 44 44 45 42 39
9 6 4 7 7 3 4 16 9 44 43 44 43 36 31 26 22 21 20 19 17 17 17 18 18 19 20 21 24 26 27 31 32 35 36 36 37 38 39 41 42 43 45 47 48 50 52 55 56
11 6 3 3 2 4 11 14 16 43 50 49 48 46 42 35 28 26 23 20 17 15 15 14 15 17 18 18 19 23 29 31 32 35 35 36 38 39 41 43 45 48 50 53 52 52 53 52 54
4 4 5 3 2 1 9 24 25 38 52 66 66 61 54 46 41 35 29 24 20 17 15 13 13 15 16 19 24 27 28 30 31 33 33 36 38 39 41 42 45 47 49 52 55 58 60 64 68
4 4 3 5 6 1 12 15 10 10 34 53 71 69 63 59 50 43 37 29 24 20 17 14 12 13 15 19 23 25 25 25 27 31 34 37 37 37 39 41 43 46 48 52 55 57 60 62 61
3 1 3 3 5 7 6 12 13 5 11 25 59 79 72 64 55 46 42 37 29 24 20 15 11 11 12 14 17 21 26 30 33 34 34 33 34 36 38 40 42 44 46 47 50 50 51 51 55
5 5 7 4 5 5 2 1 13 5 13 31 51 68 80 70 64 55 49 38 32 27 23 18 13 10 9 11 15 21 25 28 28 29 30 32 34 36 38 39 41 43 45 47 47 47 47 46 45
11 7 7 7 5 4 5 4 12 9 12 9 33 66 85 79 69 57 44 42 38 33 28 22 17 12 7 7 11 17 22 24 25 26 28 30 33 35 38 40 42 44 45 47 48 47 45 44 42
5 8 5 9 7 10 3 1 22 17 14 12 13 57 84 82 73 65 57 53 44 38 31 26 21 16 9 3 8 14 19 22 24 25 27 28 30 32 36 40 42 43 44 45 46 46 45 44 43
2 7 9 13 5 7 4 12 14 13 6 11 19 21 62 83 80 72 62 52 43 37 33 28 23 19 12 3 5 12 19 23 24 24 26 28 30 33 36 39 40 41 42 43 43 44 44 43 41
5 4 4 12 4 6 7 16 19 4 9 22 17 18 41 77 85 76 64 53 42 38 32 26 24 20 14 4 5 12 19 24 26 25 25 27 30 32 36 39 40 41 43 44 45 45 44 43 43
8 7 8 5 1 8 9 12 12 11 15 17 12 21 27 53 81 79 68 56 43 34 29 27 24 21 17 10 9 14 20 26 29 29 27 28 30 33 36 38 40 41 43 44 45 46 46 45 45
3 1 6 5 7 8 3 12 13 9 6 14 26 22 25 39 72 83 71 57 42 33 34 28 26 24 24 18 16 18 22 28 32 32 31 31 32 35 38 40 40 42 44 43 45 46 45 46 46
5 10 10 9 10 4 1 17 2 11 18 17 27 16 17 28 52 78 72 60 50 41 34 31 28 25 22 25 22 22 25 31 35 35 34 34 35 39 41 41 43 43 44 44 44 45 45 46 45
Wind_Direction_850mb
328 330 340 36 51 64 98 263 290 115 98 57 120 108 108 53 58 127 151 18 13 354 352 360 28 2 329 330 295 246 223 184 292 23 9 318 308 294 286 286 284 282 280 279 288 307 288 291 296
317 331 292 83 75 77 256 276 218 66 130 108 92 82 50 74 70 97 160 314 6 10 4 344 331 338 320 302 281 305 294 249 235 252 290 291 299 322 309 295 283 281 283 280 276 291 313 283 268
312 320 234 95 101 165 214 327 128 109 133 126 103 76 77 53 74 97 14 348 346 344 350 352 350 326 329 326 320 274 279 303 295 262 267 270 274 275 268 288 306 300 284 281 277 276 291 293 284
298 272 67 98 126 217 314 116 135 125 86 80 108 70 86 72 140 67 357 340 334 329 330 332 328 322 320 324 317 308 275 269 281 291 286 275 266 258 270 279 276 270 286 290 282 271 274 283 278
246 327 78 99 118 105 64 132 177 86 78 77 102 129 90 83 91 5 337 335 329 324 322 319 314 311 308 306 301 297 292 279 265 274 281 282 280 275 268 270 274 277 275 272 271 288 279 265 266
169 98 85 183 132 130 93 138 155 83 92 97 101 105 131 108 84 305 1 344 338 332 325 320 315 308 303 300 299 296 291 286 279 271 266 271 275 279 278 278 276 276 274 274 271 261 268 280 272
136 104 206 180 144 141 136 75 78 107 82 55 130 101 148 129 115 66 9 360 347 339 331 322 317 311 303 297 294 291 289 285 281 278 271 270 267 273 276 279 282 276 276 273 270 266 264 261 265
159 111 147 186 172 173 144 126 104 83 109 125 142 147 165 158 116 85 13 349 345 344 344 341 333 324 313 304 296 290 285 283 283 279 275 269 270 272 274 275 280 283 282 272 267 270 272 269 265
134 73 184 162 163 135 142 116 139 134 123 93 98 176 145 132 130 115 354 327 335 337 339 344 340 334 330 318 308 298 290 286 283 282 280 276 269 267 271 277 278 282 285 285 283 273 267 271 270
82 164 192 106 120 103 117 134 145 148 116 89 120 132 125 122 131 152 37 351 354 351 350 350 353 355 354 352 342 324 311 299 291 287 287 287 283 280 270 270 271 278 281 282 282 279 277 281 276
49 130 141 94 102 150 149 114 127 139 168 186 176 144 136 131 135 95 10 2 9 13 12 9 6 7 8 12 16 12 5 354 340 322 305 300 297 293 288 284 282 279 269 276 277 279 279 280 276
85 53 77 99 128 145 134 139 92 92 146 162 151 139 142 136 125 92 39 20 16 14 20 26 28 26 27 27 27 30 32 32 27 20 8 355 333 315 305 302 299 297 288 279 274 272 278 281 283
76 112 68 95 105 107 136 103 139 122 139 149 151 148 143 133 95 74 68 61 55 38 38 36 40 40 42 41 42 42 42 40 40 37 34 30 24 14 5 352 335 320 313 302 297 288 279 275 278
95 103 100 71 78 92 114 140 135 167 158 156 159 152 153 140 110 95 94 96 98 81 74 60 55 49 44 44 44 45 46 43 41 40 39 36 34 31 27 22 15 6 357 343 325 309 300 294 286
116 78 93 33 27 92 117 175 235 177 172 168 170 168 162 148 129 121 115 110 102 94 84 82 75 65 57 53 49 48 46 43 42 40 38 35 32 31 28 27 25 23 18 11 0 348 334 314 299
59 57 98 9 2 26 118 262 172 177 178 179 180 178 176 164 150 142 130 118 108 97 93 83 77 72 66 62 57 54 51 48 47 44 41 37 33 31 28 27 24 21 15 13 7 2 358 352 342
19 193 203 316 38 330 167 276 165 182 189 188 190 190 188 185 174 158 146 135 123 111 95 86 79 74 67 61 58 56 54 53 51 49 45 42 37 34 30 29 26 21 17 12 10 5 359 356 355
192 189 229 247 340 26 265 260 187 192 201 206 202 198 199 199 191 178 164 153 140 127 114 101 90 80 72 63 57 52 47 48 46 46 45 42 39 36 33 31 27 24 22 20 18 13 9 2 357
120 135 221 245 339 290 249 265 236 207 215 217 212 206 208 207 199 192 182 170 156 140 124 110 98 89 81 74 65 54 43 40 37 38 35 33 32 29 28 26 25 23 22 23 23 21 17 10 6
98 119 247 297 315 244 333 273 251 209 222 214 211 211 210 206 204 199 193 184 172 161 148 131 109 88 74 61 52 46 39 35 32 32 29 28 25 22 21 20 19 18 17 17 16 17 18 18 14
83 173 198 254 331 158 326 278 266 241 222 215 220 221 214 209 206 202 199 192 185 177 167 149 125 99 74 58 49 42 39 37 33 29 25 24 20 18 17 16 16 15 14 14 14 14 12 15 17
171 47 93 70 32 266 10 288 297 264 252 217 214 216 216 209 210 208 202 199 193 187 179 167 144 114 85 65 48 37 31 26 25 23 20 16 13 13 14 14 14 14 14 13 13 12 11 9 11
156 155 116 94 101 355 335 282 266 10 259 232 215 213 215 212 209 205 205 201 198 196 190 181 166 143 105 64 40 30 26 24 21 18 15 11 10 10 10 10 11 11 11 12 11 10 11 10 9
146 90 60 61 77 359 315 149 273 221 226 270 210 212 216 211 208 207 205 202 202 200 196 190 183 169 141 73 38 27 20 16 13 9 8 8 6 5 6 6 6 6 5 6 7 7 6 5 6
39 59 352 352 10 229 306 53 254 272 239 231 232 212 215 212 207 204 203 202 202 201 197 196 189 181 168 100 32 21 13 6 1 359 360 1 1 0 360 360 359 359 359 359 360 360 360 0 360
139 145 159 210 210 273 4 240 251 219 317 285 261 249 220 210 207 205 205 204 202 200 200 200 195 188 182 160 21 9 2 357 351 348 348 351 353 354 354 354 352 352 352 353 354 354 354 354 351
213 190 208 96 57 38 231 285 297 267 287 270 274 236 217 213 207 205 204 203 201 201 202 203 202 198 195 209 329 345 345 342 336 334 334 337 342 345 346 346 346 346 347 347 348 349 348 346 346
141 173 80 7 234 277 283 282 241 304 340 345 304 256 234 217 210 207 204 202 201 201 201 207 210 212 216 239 292 319 329 330 323 317 318 323 328 334 337 338 340 340 341 341 342 342 342 342 341
87 166 55 129 146 197 272 262 215 222 295 302 310 286 246 223 211 208 205 203 201 201 208 214 219 222 226 240 271 302 317 325 321 311 303 309 316 324 328 331 334 334 335 336 336 336 336 336 336
143 189 156 135 238 236 137 271 293 249 268 291 318 311 274 241 219 208 205 203 204 207 213 221 228 236 235 238 261 288 308 318 321 311 299 298 307 316 322 325 328 328 329 330 331 331 331 331 331